Home   Weather   Valley Village   Past weeks
Flag for USA

Past Weather in Valley Village, California, USA — Yesterday and Last 2 Weeks

Now
53 °F

Fog.


Feels Like: 53 °F
Forecast: 72 / 54 °F
Wind: No wind

Location: Bob Hope Airport

Current Time: Nov 14, 2019 at 8:39:53 am

Latest Report: Nov 14, 2019 at 8:12 am


Visibility: 0 mi

Pressure: 30.11 "Hg

Humidity: 96%

Dew Point: 52 °F

Location of Valley VillageLocation

Past Weather in Valley Village — Graph

°F

Valley Village Temperature Yesterday

Maximum temperature yesterday: 74 °F (at 12:53 pm)
Minimum temperature yesterday: 50 °F (at 5:02 am)
Average temperature yesterday: 60 °F

High & Low Weather Summary for the Past Weeks

 TemperatureHumidityPressure
High89 °F (Nov 8, 1:53 pm)100% (Nov 13, 12:00 am)30.16 "Hg (Nov 13, 12:00 am)
Low42 °F (Oct 31, 6:53 am)2% (Nov 1, 2:53 pm)29.87 "Hg (Nov 4, 1:53 pm)
Average64 °F44%29.99 "Hg
* Reported Oct 30 8:53 am — Nov 14 7:15 am, Valley Village. Weather by CustomWeather, © 2019

Note: Actual official high and low records may vary slightly from our data, if they occured in-between our weather recording intervals... More about our weather records

Advertising

Valley Village Weather History for the Previous 24 Hours

Scroll right to see more
 ConditionsComfort  
Time TempWeatherWind HumidityBarometerVisibility
7:15 am
Thu, Nov 14
52 °FFog.5 mph93%30.09 "Hg1 mi
6:53 am53 °FSunny.No wind77%30.06 "Hg4 mi
5:53 am53 °FClear.No wind80%30.04 "Hg7 mi
5:14 am54 °FPassing clouds.No wind77%30.06 "Hg7 mi
4:53 am54 °FLow clouds.3 mph80%30.04 "Hg6 mi
4:34 am54 °FPassing clouds.No wind80%30.05 "Hg6 mi
3:53 am54 °FClear.No wind83%30.01 "Hg5 mi
2:53 am53 °FFog.No wind86%30.02 "Hg5 mi
1:53 am55 °FClear.No wind83%30.01 "Hg6 mi
12:53 am55 °FClear.No wind83%30.01 "Hg6 mi
11:53 pm
Wed, Nov 13
55 °FFog.No wind87%30.01 "Hg5 mi
10:53 pm56 °FClear.No wind84%30.00 "Hg6 mi
9:53 pm57 °FClear.3 mph87%30.00 "Hg5 mi
8:53 pm57 °FClear.5 mph87%30.00 "Hg6 mi
7:53 pm58 °FClear.No wind87%29.98 "Hg6 mi
6:53 pm59 °FClear.5 mph84%29.97 "Hg5 mi
5:56 pm61 °FClear.7 mph78%29.98 "Hg9 mi
4:53 pm64 °FClear.6 mph68%29.94 "Hg5 mi
3:53 pm68 °FSunny.9 mph57%29.97 "Hg8 mi
2:53 pm70 °FSunny.9 mph53%29.93 "Hg8 mi
1:53 pm73 °FSunny.8 mph48%29.92 "Hg7 mi
12:53 pm74 °FSunny.8 mph46%29.93 "Hg5 mi
11:53 am73 °FSunny.5 mph38%29.95 "Hg9 mi
10:53 am70 °FSunny.3 mph42%29.99 "Hg9 mi
9:53 am67 °FSunny.No wind47%30.00 "Hg8 mi
8:53 am62 °FSunny.No wind54%30.00 "Hg9 mi
Weather by CustomWeather, © 2019

See weather overview